Погода Ханты-Мансийск

Погода Ханты-Мансийск : погода сейчас, прогноз погоды и архив. Всё, что Вы хотите узнать о погоде Ханты-Мансийск!

Хотите узнать прогноз погоды Ханты-Мансийск? Тогда Вам сюда: Погода Ханты-Мансийск

Поиск расширенной информации на нашем сайте:

Другие новости

Новости СМИ2

Главная страница сайта

Новости сайта

03.07.2017

Напоминаем, что на нашем специализированном сайте Метеоцентр.Азия вы можете получить высокодетализированные автоматические прогнозы погоды по пунктам России, СНГ и мира в авиационном формате (включающие направление и скорость ветра, видимость, явления погоды, количество и форму облачности, нижнюю и верхнюю границу облачности).


Погода Ханты-Мансийск - сегодня

Время (UTC), дата Ветер
(°,м/с) 
Видим.   Явления Облачность Т
(°С)
Тd
(°С)
f(%) Тe
(°С)
Pmin
(гПа)
dP
(гПа)
Po
(мм)
O2
(г/м3)
Тmin Tmax R s Состояние
почвы
06 15.08.18 160 (Ю) 10 км  слаб. ливневой дождь  10/10 300 м кучево-дожд. 
[Cb cap]
+18.5 +16.9 90 +31  1006.1  -0.6  751  280           
09 15.08.18 290 (З) 4000 м  слаб. ливневой дождь  10/10 300 м кучево-дожд. 
[Cb cap]
+18.4 +16.9 91 +32  1005.8  -0.3  750  280           
12 15.08.18 350 (С) 10 км  слаб. ливневой дождь  10/10 300 м кучево-дожд. 
[Cb cap]
+15.9 +14.7 93 +25  1007.3  1.5  752  283           
15 15.08.18 350 (С) 10 км  слаб. дождь{ливн. осадки}  10/10 300 м 
[Frnb|Ns]
+14.9 +13.6 92 +22  1008.8  1.5  753  285    +18.8  13     
18 15.08.18 330 (СЗ) 10 км  слаб. дождь{ливн. осадки}  10/10 300 м 
[Frnb|Ns]
+14.4 +13.3 93 +22  1009.4  0.5  753  286           
21 15.08.18 340 (С) 4000 м  слаб. дождь  10/10 300 м 
[Frnb|Ns]
+14 +13.1 94 +20  1009.4  753  286           
00 16.08.18 330 (СЗ) 10 км  местами туман поземный{дождь}  8/0 средняя 
[Ac As]
+13 +12.2 95 +18  1010  0.6  754  287           
03 16.08.18 340 (С) 10 км  {дождь}  9/8 600 м средняя 
[Sc diur, vesp|As trans]
+15 +13.9 93 +23  1010.4  0.4  754  285  +12.5       
06 16.08.18 310 (СЗ) 10 км    8/8 600 м кучево-дожд. 
[Cb cap]
+18.1 +13 72 +25  1010.6  0.3  754  282           
09 16.08.18 360 (С) 10 км    9/8 600 м кучево-дожд., верхняя 
[Cb cap|Ci fib]
+18.7 +11.8 64 +24  1010.7  0.1  754  282           
12 16.08.18 290 (З) 10 км    8/4 600 м верхняя 
[Cu med, cong|Ci fib]
+20.3 +10.9 55 +23  1010.8  0.2  754  281           
18 16.08.18 тихо ()   10 км    10/0 средняя, верхняя 
[Ac trans|Cs]
+13.3 +11.4 88 +16  1010.5  754  288           
21 16.08.18 тихо ()   н/о    н/о 
+11.9 +11 94 +14  1009.6  -0.9  753  289           
00 17.08.18 тихо ()   10 км    10/0 средняя 
[As op]
+12 +11 94 +14  1009.6  -0.5  753  289           
03 17.08.18 090 (В) 10 км  в посл. час дождь  10/4 600 м средняя 
[Sc|As op]
+14.2 +12.7 91 +20  1008.8  -0.3  753  286  +11.5    0.4     
06 17.08.18 тихо ()   10 км  слаб. дождь  10/8 1000 м средняя 
[Sc|As op]
+14.9 +13 88 +20  1008.4  -0.4  752  285           
09 17.08.18 090 (В) 4000 м  слаб. дождь  10/10 300 м 
[Frnb|Ns]
+14.3 +12.9 91 +20  1008.1  -0.3  752  285           
12 17.08.18 080 (В) 4000 м  слаб. дождь  10/10 300 м 
[Frnb|Ns]
+14.3 +13.3 94 +22  1007.7  -0.4  752  285           
15 17.08.18 040 (СВ) 4000 м  слаб. дождь  10/10 300 м 
[Frnb|Ns]
+13.5 +12.5 94 +20  1007.2  -0.5  751  286    +15.2  21     
18 17.08.18 040 (СВ) 4000 м  слаб. дождь  10/10 300 м 
[Frnb|Ns]
+13.5 +12.7 95 +19  1006.8  -0.4  751  286           
21 17.08.18 030 (СВ) 4000 м  слаб. дождь  10/10 300 м 
[Frnb|Ns]
+12.8 +11.8 94 +17  1006.4  -0.4  751  287           
00 18.08.18 020 (С) 4000 м  слаб. дождь  10/10 300 м 
[Frnb|Ns]
+11.8 +10.7 93 +14  1007.1  0.7  751  288           
03 18.08.18 360 (С) 4000 м  слаб. дождь  10/10 300 м 
[Frnb|Ns]
+11.8 +10.6 92 +14  1008.2  1.1  752  289  +11.6    19     
06 18.08.18 350 (С) 10 км  {дождь}  10/9 300 м средняя 
[Frnb|As op]
+12.8 +11 89 +15  1009.4  1.2  753  288           
09 18.08.18 350 (С) 10 км  {ливн. осадки}  10/10 600 м кучево-дожд. 
[Cb cap]
+13.2 +10.8 85 +16  1011.1  1.7  754  288           
Время (UTC), дата Ветер
(°,м/с) 
Видим.   Явления Облачность Т
(°С)
Тd
(°С)
f(%) Тe
(°С)
Pmin
(гПа)
dP
(гПа)
Po
(мм)
O2
(г/м3)
Тmin Tmax R s Состояние
почвы

Для получения пояснительной информации подведите курсор к названию столбца.

ПОГОДА Ханты-Мансийск - архив

Всё, что Вы хотите узнать о погоде Ханты-Мансийск - удобно и подробно!

Выберите нужную дату (начиная с 1 января 2015* года) и нажмите кнопку "Найти".
Будут отображены архивные сводки погоды по пункту Ханты-Мансийск, начиная с указанной даты.


Отображать данные в формате CSV (для использования в таблицах Excel)


Внимание! Наш архив погоды предназначен исключительно для личного некоммерческого использования в познавательных целях. Если Вам необходимы официальные справки о состоянии погоды (для производственных, юридических, коммерческих и т.п. целей), обращайтесь в органы Росгидромета.

*Примечание: данная дата относится к архиву по метеостанциям СССР (Россия, СНГ, Балтия).
Архив по метеостанциям Зарубежной Европы и Азии (кроме Китая) хранится 10 дней, по другим регионам земного шара (Китай, Африка, Америка, Австралия, Океания) - 1 день.

Ханты-Мансийск - район местоположения метеостанции


Название, широта, долгота, высота метеостанции:
Ханты-Мансийск 61°ш. 69°д. 46 м над ур. моря [Российская Федерация]

Дополнительная информация

В oтличие oт бoльшинства пoгoдных сайтoв мы публикуем пoдрoбную метеoинфoрмацию в детальнoм прoфессиoнальнoм фoрмате.

Характеристики температуры и влажнoсти вoздуха измеряются на высoте 2 м в тени вдали oт зданий и деревьев.
Скoрoсть ветра измеряется на высoте 10 м (на урoвне рoста челoвека скoрoсть ветра ниже в 1.5-2 раза). Если метеoстанция нахoдится в гoрoде или в лесу, тo скoрoсть ветра занижена на 2-4 м/с пo сравнению с oткрытым местoм. Скoрoсть ветра над акватoриями крупных рек и oзёр, а также на вершинах хoлмoв на 2-5 м/с выше, чем в oбычных услoвиях.
Атмoсфернoе давление в разных тoчках местнoсти мoжет значительнo oтличаться oт давления на метеoстанции, в зависимoсти oт услoвий рельефа (при пoдъёме на 10 м давление пoнижается примернo на 1 мм рт.ст.).